Year,Month,Day,Hour,Minute,Value (Times are PST for temperature in C)
2015,04,16,00,00,6.00
2015,04,16,00,01,6.00
2015,04,16,00,02,6.00
2015,04,16,00,03,5.90
2015,04,16,00,04,5.90
2015,04,16,00,05,5.90
2015,04,16,00,06,5.90
2015,04,16,00,07,5.90
2015,04,16,00,08,5.90
2015,04,16,00,09,5.90
2015,04,16,00,10,5.90
2015,04,16,00,11,5.90
2015,04,16,00,12,5.90
2015,04,16,00,13,5.90
2015,04,16,00,14,5.90
2015,04,16,00,15,5.90
2015,04,16,00,16,5.90
2015,04,16,00,17,5.80
2015,04,16,00,18,5.80
2015,04,16,00,19,5.70
2015,04,16,00,20,5.70
2015,04,16,00,21,5.70
2015,04,16,00,22,5.70
2015,04,16,00,23,5.70
2015,04,16,00,24,5.70
2015,04,16,00,25,5.70
2015,04,16,00,26,5.70
2015,04,16,00,27,5.70
2015,04,16,00,28,5.60
2015,04,16,00,29,5.60
2015,04,16,00,30,5.60
2015,04,16,00,31,5.60
2015,04,16,00,32,5.60
2015,04,16,00,33,5.60
2015,04,16,00,34,5.60
2015,04,16,00,35,5.60
2015,04,16,00,36,5.50
2015,04,16,00,37,5.50
2015,04,16,00,38,5.50
2015,04,16,00,39,5.50
2015,04,16,00,40,5.50
2015,04,16,00,41,5.50
2015,04,16,00,42,5.50
2015,04,16,00,43,5.50
2015,04,16,00,44,5.50
2015,04,16,00,45,5.50
2015,04,16,00,46,5.40
2015,04,16,00,47,5.40
2015,04,16,00,48,5.40
2015,04,16,00,49,5.40
2015,04,16,00,50,5.40
2015,04,16,00,51,5.40
2015,04,16,00,52,5.40
2015,04,16,00,53,5.30
2015,04,16,00,54,5.30
2015,04,16,00,55,5.30
2015,04,16,00,56,5.30
2015,04,16,00,57,5.30
2015,04,16,00,58,5.30
2015,04,16,00,59,5.30
2015,04,16,01,00,5.30
2015,04,16,01,01,5.30
2015,04,16,01,02,5.30
2015,04,16,01,03,5.30
2015,04,16,01,04,5.30
2015,04,16,01,05,5.30
2015,04,16,01,06,5.20
2015,04,16,01,07,5.20
2015,04,16,01,08,5.10
2015,04,16,01,09,5.10
2015,04,16,01,10,5.10
2015,04,16,01,11,5.10
2015,04,16,01,12,5.00
2015,04,16,01,13,4.90
2015,04,16,01,14,4.90
2015,04,16,01,15,4.90
2015,04,16,01,16,4.90
2015,04,16,01,17,4.90
2015,04,16,01,18,4.90
2015,04,16,01,19,4.90
2015,04,16,01,20,4.90
2015,04,16,01,21,4.90
2015,04,16,01,22,4.80
2015,04,16,01,23,4.80
2015,04,16,01,24,4.80
2015,04,16,01,25,4.70
2015,04,16,01,26,4.70
2015,04,16,01,27,4.70
2015,04,16,01,28,4.70
2015,04,16,01,29,4.70
2015,04,16,01,30,4.60
2015,04,16,01,31,4.60
2015,04,16,01,32,4.60
2015,04,16,01,33,4.60
2015,04,16,01,34,4.60
2015,04,16,01,35,4.60
2015,04,16,01,36,4.60
2015,04,16,01,37,4.60
2015,04,16,01,38,4.60
2015,04,16,01,39,4.60
2015,04,16,01,40,4.60
2015,04,16,01,41,4.60
2015,04,16,01,42,4.60
2015,04,16,01,43,4.60
2015,04,16,01,44,4.60
2015,04,16,01,45,4.60
2015,04,16,01,46,4.60
2015,04,16,01,47,4.60
2015,04,16,01,48,4.60
2015,04,16,01,49,4.60
2015,04,16,01,50,4.60
2015,04,16,01,51,4.70
2015,04,16,01,52,4.70
2015,04,16,01,53,4.70
2015,04,16,01,54,4.70
2015,04,16,01,55,4.70
2015,04,16,01,56,4.70
2015,04,16,01,57,4.70
2015,04,16,01,58,4.60
2015,04,16,01,59,4.60
2015,04,16,02,00,4.60
2015,04,16,02,01,4.60
2015,04,16,02,02,4.60
2015,04,16,02,03,4.60
2015,04,16,02,04,4.60
2015,04,16,02,05,4.60
2015,04,16,02,06,4.60
2015,04,16,02,07,4.60
2015,04,16,02,08,4.60
2015,04,16,02,09,4.70
2015,04,16,02,10,4.70
2015,04,16,02,11,4.70
2015,04,16,02,12,4.80
2015,04,16,02,13,4.80
2015,04,16,02,14,4.80
2015,04,16,02,15,4.80
2015,04,16,02,16,4.80
2015,04,16,02,17,4.80
2015,04,16,02,18,4.80
2015,04,16,02,19,4.70
2015,04,16,02,20,4.70
2015,04,16,02,21,4.70
2015,04,16,02,22,4.60
2015,04,16,02,23,4.60
2015,04,16,02,24,4.60
2015,04,16,02,25,4.60
2015,04,16,02,26,4.60
2015,04,16,02,27,4.60
2015,04,16,02,28,4.60
2015,04,16,02,29,4.60
2015,04,16,02,30,4.60
2015,04,16,02,31,4.60
2015,04,16,02,32,4.50
2015,04,16,02,33,4.50
2015,04,16,02,34,4.50
2015,04,16,02,35,4.50
2015,04,16,02,36,4.50
2015,04,16,02,37,4.50
2015,04,16,02,38,4.40
2015,04,16,02,39,4.40
2015,04,16,02,40,4.40
2015,04,16,02,41,4.40
2015,04,16,02,42,4.40
2015,04,16,02,43,4.40
2015,04,16,02,44,4.40
2015,04,16,02,45,4.40
2015,04,16,02,46,4.40
2015,04,16,02,47,4.30
2015,04,16,02,48,4.30
2015,04,16,02,49,4.30
2015,04,16,02,50,4.30
2015,04,16,02,51,4.20
2015,04,16,02,52,4.20
2015,04,16,02,53,4.20
2015,04,16,02,54,4.20
2015,04,16,02,55,4.20
2015,04,16,02,56,4.20
2015,04,16,02,57,4.20
2015,04,16,02,58,4.20
2015,04,16,02,59,4.20
2015,04,16,03,00,4.30
2015,04,16,03,01,4.40
2015,04,16,03,02,4.40
2015,04,16,03,03,4.30
2015,04,16,03,04,4.30
2015,04,16,03,05,4.20
2015,04,16,03,06,4.20
2015,04,16,03,07,4.20
2015,04,16,03,08,4.20
2015,04,16,03,09,4.20
2015,04,16,03,10,4.20
2015,04,16,03,11,4.20
2015,04,16,03,12,4.20
2015,04,16,03,13,4.20
2015,04,16,03,14,4.20
2015,04,16,03,15,4.20
2015,04,16,03,16,4.20
2015,04,16,03,17,4.20
2015,04,16,03,18,4.20
2015,04,16,03,19,4.20
2015,04,16,03,20,4.20
2015,04,16,03,21,4.20
2015,04,16,03,22,4.20
2015,04,16,03,23,4.20
2015,04,16,03,24,4.20
2015,04,16,03,25,4.20
2015,04,16,03,26,4.20
2015,04,16,03,27,4.20
2015,04,16,03,28,4.30
2015,04,16,03,29,4.30
2015,04,16,03,30,4.30
2015,04,16,03,31,4.30
2015,04,16,03,32,4.30
2015,04,16,03,33,4.30
2015,04,16,03,34,4.40
2015,04,16,03,35,4.40
2015,04,16,03,36,4.40
2015,04,16,03,37,4.40
2015,04,16,03,38,4.40
2015,04,16,03,39,4.40
2015,04,16,03,40,4.50
2015,04,16,03,41,4.50
2015,04,16,03,42,4.50
2015,04,16,03,43,4.50
2015,04,16,03,44,4.50
2015,04,16,03,45,4.50
2015,04,16,03,46,4.50
2015,04,16,03,47,4.50
2015,04,16,03,48,4.50
2015,04,16,03,49,4.50
2015,04,16,03,50,4.50
2015,04,16,03,51,4.50
2015,04,16,03,52,4.40
2015,04,16,03,53,4.40
2015,04,16,03,54,4.40
2015,04,16,03,55,4.40
2015,04,16,03,56,4.40
2015,04,16,03,57,4.40
2015,04,16,03,58,4.40
2015,04,16,03,59,4.40
2015,04,16,04,00,4.30
2015,04,16,04,01,4.30
2015,04,16,04,02,4.40
2015,04,16,04,03,4.40
2015,04,16,04,04,4.50
2015,04,16,04,05,4.50
2015,04,16,04,06,4.50
2015,04,16,04,07,4.50
2015,04,16,04,08,4.50
2015,04,16,04,09,4.50
2015,04,16,04,10,4.50
2015,04,16,04,11,4.40
2015,04,16,04,12,4.40
2015,04,16,04,13,4.40
2015,04,16,04,14,4.40
2015,04,16,04,15,4.40
2015,04,16,04,16,4.30
2015,04,16,04,17,4.30
2015,04,16,04,18,4.30
2015,04,16,04,19,4.30
2015,04,16,04,20,4.30
2015,04,16,04,21,4.30
2015,04,16,04,22,4.30
2015,04,16,04,23,4.30
2015,04,16,04,24,4.30
2015,04,16,04,25,4.30
2015,04,16,04,26,4.30
2015,04,16,04,27,4.30
2015,04,16,04,28,4.30
2015,04,16,04,29,4.30
2015,04,16,04,30,4.30
2015,04,16,04,31,4.40
2015,04,16,04,32,4.40
2015,04,16,04,33,4.40
2015,04,16,04,34,4.40
2015,04,16,04,35,4.40
2015,04,16,04,36,4.40
2015,04,16,04,37,4.30
2015,04,16,04,38,4.30
2015,04,16,04,39,4.30
2015,04,16,04,40,4.20
2015,04,16,04,41,4.20
2015,04,16,04,42,4.20
2015,04,16,04,43,4.20
2015,04,16,04,44,4.20
2015,04,16,04,45,4.20
2015,04,16,04,46,4.20
2015,04,16,04,47,4.20
2015,04,16,04,48,4.20
2015,04,16,04,49,4.20
2015,04,16,04,50,4.20
2015,04,16,04,51,4.10
2015,04,16,04,52,4.10
2015,04,16,04,53,4.10
2015,04,16,04,54,4.10
2015,04,16,04,55,4.10
2015,04,16,04,56,4.10
2015,04,16,04,57,4.00
2015,04,16,04,58,4.00
2015,04,16,04,59,4.00
2015,04,16,05,00,4.00
2015,04,16,05,01,4.00
2015,04,16,05,02,4.00
2015,04,16,05,03,4.00
2015,04,16,05,04,4.00
2015,04,16,05,05,4.00
2015,04,16,05,06,4.00
2015,04,16,05,07,4.00
2015,04,16,05,08,4.00
2015,04,16,05,09,4.00
2015,04,16,05,10,4.00
2015,04,16,05,11,4.00
2015,04,16,05,12,4.00
2015,04,16,05,13,3.90
2015,04,16,05,14,3.90
2015,04,16,05,15,3.80
2015,04,16,05,16,3.80
2015,04,16,05,17,3.80
2015,04,16,05,18,3.80
2015,04,16,05,19,3.70
2015,04,16,05,20,3.70
2015,04,16,05,21,3.70
2015,04,16,05,22,3.60
2015,04,16,05,23,3.60
2015,04,16,05,24,3.60
2015,04,16,05,25,3.50
2015,04,16,05,26,3.50
2015,04,16,05,27,3.50
2015,04,16,05,28,3.50
2015,04,16,05,29,3.50
2015,04,16,05,30,3.40
2015,04,16,05,31,3.40
2015,04,16,05,32,3.40
2015,04,16,05,33,3.40
2015,04,16,05,34,3.40
2015,04,16,05,35,3.40
2015,04,16,05,36,3.40
2015,04,16,05,37,3.40
2015,04,16,05,38,3.40
2015,04,16,05,39,3.40
2015,04,16,05,40,3.40
2015,04,16,05,41,3.40
2015,04,16,05,42,3.40
2015,04,16,05,43,3.40
2015,04,16,05,44,3.40
2015,04,16,05,45,3.40
2015,04,16,05,46,3.30
2015,04,16,05,47,3.30
2015,04,16,05,48,3.30
2015,04,16,05,49,3.30
2015,04,16,05,50,3.40
2015,04,16,05,51,3.40
2015,04,16,05,52,3.40
2015,04,16,05,53,3.40
2015,04,16,05,54,3.40
2015,04,16,05,55,3.40
2015,04,16,05,56,3.40
2015,04,16,05,57,3.40
2015,04,16,05,58,3.40
2015,04,16,05,59,3.40
2015,04,16,06,00,3.30
2015,04,16,06,01,3.30
2015,04,16,06,02,3.30
2015,04,16,06,03,3.30
2015,04,16,06,04,3.30
2015,04,16,06,05,3.30
2015,04,16,06,06,3.30
2015,04,16,06,07,3.20
2015,04,16,06,08,3.20
2015,04,16,06,09,3.20
2015,04,16,06,10,3.20
2015,04,16,06,11,3.20
2015,04,16,06,12,3.20
2015,04,16,06,13,3.30
2015,04,16,06,14,3.30
2015,04,16,06,15,3.30
2015,04,16,06,16,3.30
2015,04,16,06,17,3.30
2015,04,16,06,18,3.30
2015,04,16,06,19,3.30
2015,04,16,06,20,3.30
2015,04,16,06,21,3.20
2015,04,16,06,22,3.20
2015,04,16,06,23,3.20
2015,04,16,06,24,3.20
2015,04,16,06,25,3.10
2015,04,16,06,26,3.10
2015,04,16,06,27,3.10
2015,04,16,06,28,3.10
2015,04,16,06,29,3.10
2015,04,16,06,30,3.10
2015,04,16,06,31,3.10
2015,04,16,06,32,3.10
2015,04,16,06,33,3.10
2015,04,16,06,34,3.10
2015,04,16,06,35,3.10
2015,04,16,06,36,3.10
2015,04,16,06,37,3.10
2015,04,16,06,38,3.10
2015,04,16,06,39,3.10
2015,04,16,06,40,3.20
2015,04,16,06,41,3.20
2015,04,16,06,42,3.20
2015,04,16,06,43,3.30
2015,04,16,06,44,3.30
2015,04,16,06,45,3.30
2015,04,16,06,46,3.30
2015,04,16,06,47,3.30
2015,04,16,06,48,3.30
2015,04,16,06,49,3.30
2015,04,16,06,50,3.40
2015,04,16,06,51,3.50
2015,04,16,06,52,3.50
2015,04,16,06,53,3.60
2015,04,16,06,54,3.70
2015,04,16,06,55,3.70
2015,04,16,06,56,3.70
2015,04,16,06,57,3.80
2015,04,16,06,58,3.80
2015,04,16,06,59,3.80
2015,04,16,07,00,3.80
2015,04,16,07,01,3.80
2015,04,16,07,02,3.80
2015,04,16,07,03,3.80
2015,04,16,07,04,3.80
2015,04,16,07,05,3.80
2015,04,16,07,06,3.90
2015,04,16,07,07,4.00
2015,04,16,07,08,4.00
2015,04,16,07,09,4.10
2015,04,16,07,10,4.10
2015,04,16,07,11,4.20
2015,04,16,07,12,4.20
2015,04,16,07,13,4.20
2015,04,16,07,14,4.20
2015,04,16,07,15,4.30
2015,04,16,07,16,4.40
2015,04,16,07,17,4.50
2015,04,16,07,18,4.60
2015,04,16,07,19,4.60
2015,04,16,07,20,4.60
2015,04,16,07,21,4.70
2015,04,16,07,22,4.70
2015,04,16,07,23,4.80
2015,04,16,07,24,4.90
2015,04,16,07,25,5.00
2015,04,16,07,26,5.10
2015,04,16,07,27,5.10
2015,04,16,07,28,5.20
2015,04,16,07,29,5.30
2015,04,16,07,30,5.30
2015,04,16,07,31,5.40
2015,04,16,07,32,5.50
2015,04,16,07,33,5.50
2015,04,16,07,34,5.60
2015,04,16,07,35,5.70
2015,04,16,07,36,5.70
2015,04,16,07,37,5.70
2015,04,16,07,38,5.80
2015,04,16,07,39,5.90
2015,04,16,07,40,5.90
2015,04,16,07,41,5.90
2015,04,16,07,42,6.00
2015,04,16,07,43,6.10
2015,04,16,07,44,6.20
2015,04,16,07,45,6.30
2015,04,16,07,46,6.40
2015,04,16,07,47,6.50
2015,04,16,07,48,6.60
2015,04,16,07,49,6.70
2015,04,16,07,50,6.80
2015,04,16,07,51,6.90
2015,04,16,07,52,6.90
2015,04,16,07,53,7.00
2015,04,16,07,54,7.10
2015,04,16,07,55,7.20
2015,04,16,07,56,7.30
2015,04,16,07,57,7.40
2015,04,16,07,58,7.50
2015,04,16,07,59,7.60
2015,04,16,08,00,7.70
2015,04,16,08,01,7.70
2015,04,16,08,02,7.80
2015,04,16,08,03,7.80
2015,04,16,08,04,7.80
2015,04,16,08,05,7.90
2015,04,16,08,06,7.90
2015,04,16,08,07,8.00
2015,04,16,08,08,8.00
2015,04,16,08,09,8.00
2015,04,16,08,10,8.10
2015,04,16,08,11,8.10
2015,04,16,08,12,8.10
2015,04,16,08,13,8.20
2015,04,16,08,14,8.20
2015,04,16,08,15,8.30
2015,04,16,08,16,8.40
2015,04,16,08,17,8.40
2015,04,16,08,18,8.50
2015,04,16,08,19,8.60
2015,04,16,08,20,8.60
2015,04,16,08,21,8.70
2015,04,16,08,22,8.70
2015,04,16,08,23,8.80
2015,04,16,08,24,8.90
2015,04,16,08,25,8.90
2015,04,16,08,26,9.00
2015,04,16,08,27,9.00
2015,04,16,08,28,9.10
2015,04,16,08,29,9.20
2015,04,16,08,30,9.20
2015,04,16,08,31,9.20
2015,04,16,08,32,9.20
2015,04,16,08,33,9.30
2015,04,16,08,34,9.30
2015,04,16,08,35,9.30
2015,04,16,08,36,9.30
2015,04,16,08,37,9.40
2015,04,16,08,38,9.50
2015,04,16,08,39,9.50
2015,04,16,08,40,9.60
2015,04,16,08,41,9.60
2015,04,16,08,42,9.70
2015,04,16,08,43,9.70
2015,04,16,08,44,9.70
2015,04,16,08,45,9.70
2015,04,16,08,46,9.70
2015,04,16,08,47,9.60
2015,04,16,08,48,9.60
2015,04,16,08,49,9.60
2015,04,16,08,50,9.60
2015,04,16,08,51,9.60
2015,04,16,08,52,9.60
2015,04,16,08,53,9.60
2015,04,16,08,54,9.60
2015,04,16,08,55,9.60
2015,04,16,08,56,9.60
2015,04,16,08,57,9.60
2015,04,16,08,58,9.60
2015,04,16,08,59,9.60
2015,04,16,09,00,9.60
2015,04,16,09,01,9.70
2015,04,16,09,02,9.70
2015,04,16,09,03,9.70
2015,04,16,09,04,9.60
2015,04,16,09,05,9.60
2015,04,16,09,06,9.60
2015,04,16,09,07,9.60
2015,04,16,09,08,9.60
2015,04,16,09,09,9.60
2015,04,16,09,10,9.60
2015,04,16,09,11,9.60
2015,04,16,09,12,9.60
2015,04,16,09,13,9.70
2015,04,16,09,14,9.70
2015,04,16,09,15,9.70
2015,04,16,09,16,9.80
2015,04,16,09,17,9.80
2015,04,16,09,18,9.90
2015,04,16,09,19,9.90
2015,04,16,09,20,10.00
2015,04,16,09,21,10.00
2015,04,16,09,22,10.00
2015,04,16,09,23,10.10
2015,04,16,09,24,10.10
2015,04,16,09,25,10.10
2015,04,16,09,26,10.10
2015,04,16,09,27,10.10
2015,04,16,09,28,10.10
2015,04,16,09,29,10.20
2015,04,16,09,30,10.10
2015,04,16,09,31,10.10
2015,04,16,09,32,10.10
2015,04,16,09,33,10.10
2015,04,16,09,34,10.10
2015,04,16,09,35,10.10
2015,04,16,09,36,10.20
2015,04,16,09,37,10.30
2015,04,16,09,38,10.40
2015,04,16,09,39,10.40
2015,04,16,09,40,10.40
2015,04,16,09,41,10.50
2015,04,16,09,42,10.60
2015,04,16,09,43,10.60
2015,04,16,09,44,10.60
2015,04,16,09,45,10.60
2015,04,16,09,46,10.60
2015,04,16,09,47,10.60
2015,04,16,09,48,10.60
2015,04,16,09,49,10.60
2015,04,16,09,50,10.60
2015,04,16,09,51,10.60
2015,04,16,09,52,10.70
2015,04,16,09,53,10.70
2015,04,16,09,54,10.80
2015,04,16,09,55,10.80
2015,04,16,09,56,10.90
2015,04,16,09,57,10.90
2015,04,16,09,58,10.90
2015,04,16,09,59,10.90
2015,04,16,10,00,11.00
2015,04,16,10,01,11.10
2015,04,16,10,02,11.20
2015,04,16,10,03,11.20
2015,04,16,10,04,11.20
2015,04,16,10,05,11.20
2015,04,16,10,06,11.10
2015,04,16,10,07,11.10
2015,04,16,10,08,11.10
2015,04,16,10,09,11.20
2015,04,16,10,10,11.20
2015,04,16,10,11,11.30
2015,04,16,10,12,11.30
2015,04,16,10,13,11.40
2015,04,16,10,14,11.40
2015,04,16,10,15,11.50
2015,04,16,10,16,11.60
2015,04,16,10,17,11.60
2015,04,16,10,18,11.60
2015,04,16,10,19,11.50
2015,04,16,10,20,11.40
2015,04,16,10,21,11.40
2015,04,16,10,22,11.40
2015,04,16,10,23,11.40
2015,04,16,10,24,11.40
2015,04,16,10,25,11.40
2015,04,16,10,26,11.40
2015,04,16,10,27,11.40
2015,04,16,10,28,11.40
2015,04,16,10,29,11.40
2015,04,16,10,30,11.40
2015,04,16,10,31,11.40
2015,04,16,10,32,11.40
2015,04,16,10,33,11.40
2015,04,16,10,34,11.40
2015,04,16,10,35,11.50
2015,04,16,10,36,11.60
2015,04,16,10,37,11.60
2015,04,16,10,38,11.60
2015,04,16,10,39,11.60
2015,04,16,10,40,11.60
2015,04,16,10,41,11.70
2015,04,16,10,42,11.70
2015,04,16,10,43,11.80
2015,04,16,10,44,11.80
2015,04,16,10,45,11.90
2015,04,16,10,46,11.90
2015,04,16,10,47,12.00
2015,04,16,10,48,12.00
2015,04,16,10,49,12.10
2015,04,16,10,50,12.10
2015,04,16,10,51,12.10
2015,04,16,10,52,12.10
2015,04,16,10,53,12.20
2015,04,16,10,54,12.20
2015,04,16,10,55,12.30
2015,04,16,10,56,12.30
2015,04,16,10,57,12.30
2015,04,16,10,58,12.30
2015,04,16,10,59,12.30
2015,04,16,11,00,12.30
2015,04,16,11,01,12.30
2015,04,16,11,02,12.30
2015,04,16,11,03,12.30
2015,04,16,11,04,12.30
2015,04,16,11,05,12.30
2015,04,16,11,06,12.40
2015,04,16,11,07,12.40
2015,04,16,11,08,12.40
2015,04,16,11,09,12.40
2015,04,16,11,10,12.50
2015,04,16,11,11,12.50
2015,04,16,11,12,12.60
2015,04,16,11,13,12.70
2015,04,16,11,14,12.80
2015,04,16,11,15,12.80
2015,04,16,11,16,12.80
2015,04,16,11,17,12.90
2015,04,16,11,18,12.90
2015,04,16,11,19,12.90
2015,04,16,11,20,12.90
2015,04,16,11,21,12.90
2015,04,16,11,22,12.90
2015,04,16,11,23,12.90
2015,04,16,11,24,13.00
2015,04,16,11,25,13.00
2015,04,16,11,26,13.00
2015,04,16,11,27,12.90
2015,04,16,11,28,12.90
2015,04,16,11,29,12.90
2015,04,16,11,30,12.90
2015,04,16,11,31,12.80
2015,04,16,11,32,12.80
2015,04,16,11,33,12.70
2015,04,16,11,34,12.70
2015,04,16,11,35,12.70
2015,04,16,11,36,12.70
2015,04,16,11,37,12.80
2015,04,16,11,38,12.90
2015,04,16,11,39,13.00
2015,04,16,11,40,13.00
2015,04,16,11,41,12.90
2015,04,16,11,42,13.00
2015,04,16,11,43,13.00
2015,04,16,11,44,13.00
2015,04,16,11,45,13.00
2015,04,16,11,46,13.00
2015,04,16,11,47,13.10
2015,04,16,11,48,13.10
2015,04,16,11,49,13.20
2015,04,16,11,50,13.20
2015,04,16,11,51,13.30
2015,04,16,11,52,13.20
2015,04,16,11,53,13.10
2015,04,16,11,54,13.10
2015,04,16,11,55,13.10
2015,04,16,11,56,13.10
2015,04,16,11,57,13.10
2015,04,16,11,58,13.10
2015,04,16,11,59,13.00
2015,04,16,12,00,13.00
2015,04,16,12,01,13.00
2015,04,16,12,02,13.10
2015,04,16,12,03,13.10
2015,04,16,12,04,13.20
2015,04,16,12,05,13.30
2015,04,16,12,06,13.50
2015,04,16,12,07,13.50
2015,04,16,12,08,13.60
2015,04,16,12,09,13.50
2015,04,16,12,10,13.40
2015,04,16,12,11,13.30
2015,04,16,12,12,13.30
2015,04,16,12,13,13.20
2015,04,16,12,14,13.20
2015,04,16,12,15,13.20
2015,04,16,12,16,13.20
2015,04,16,12,17,13.20
2015,04,16,12,18,13.30
2015,04,16,12,19,13.30
2015,04,16,12,20,13.30
2015,04,16,12,21,13.40
2015,04,16,12,22,13.50
2015,04,16,12,23,13.60
2015,04,16,12,24,13.60
2015,04,16,12,25,13.70
2015,04,16,12,26,13.70
2015,04,16,12,27,13.90
2015,04,16,12,28,13.90
2015,04,16,12,29,14.10
2015,04,16,12,30,14.10
2015,04,16,12,31,14.20
2015,04,16,12,32,14.20
2015,04,16,12,33,14.20
2015,04,16,12,34,14.20
2015,04,16,12,35,14.10
2015,04,16,12,36,14.10
2015,04,16,12,37,14.10
2015,04,16,12,38,14.10
2015,04,16,12,39,14.00
2015,04,16,12,40,13.90
2015,04,16,12,41,13.90
2015,04,16,12,42,13.80
2015,04,16,12,43,13.70
2015,04,16,12,44,13.70
2015,04,16,12,45,13.70
2015,04,16,12,46,13.70
2015,04,16,12,47,13.60
2015,04,16,12,48,13.50
2015,04,16,12,49,13.40
2015,04,16,12,50,13.40
2015,04,16,12,51,13.50
2015,04,16,12,52,13.50
2015,04,16,12,53,13.60
2015,04,16,12,54,13.60
2015,04,16,12,55,13.70
2015,04,16,12,56,13.70
2015,04,16,12,57,13.60
2015,04,16,12,58,13.70
2015,04,16,12,59,13.80
2015,04,16,13,00,13.80
2015,04,16,13,01,13.90
2015,04,16,13,02,13.90
2015,04,16,13,03,13.90
2015,04,16,13,04,13.90
2015,04,16,13,05,14.00
2015,04,16,13,06,14.10
2015,04,16,13,07,14.20
2015,04,16,13,08,14.30
2015,04,16,13,09,14.50
2015,04,16,13,10,14.50
2015,04,16,13,11,14.60
2015,04,16,13,12,14.60
2015,04,16,13,13,14.60
2015,04,16,13,14,14.50
2015,04,16,13,15,14.40
2015,04,16,13,16,14.40
2015,04,16,13,17,14.40
2015,04,16,13,18,14.40
2015,04,16,13,19,14.50
2015,04,16,13,20,14.50
2015,04,16,13,21,14.60
2015,04,16,13,22,14.70
2015,04,16,13,23,14.80
2015,04,16,13,24,14.80
2015,04,16,13,25,14.80
2015,04,16,13,26,14.80
2015,04,16,13,27,14.80
2015,04,16,13,28,14.90
2015,04,16,13,29,15.00
2015,04,16,13,30,15.00
2015,04,16,13,31,15.00
2015,04,16,13,32,15.00
2015,04,16,13,33,15.00
2015,04,16,13,34,15.00
2015,04,16,13,35,15.00
2015,04,16,13,36,15.00
2015,04,16,13,37,15.00
2015,04,16,13,38,15.10
2015,04,16,13,39,15.20
2015,04,16,13,40,15.20
2015,04,16,13,41,15.30
2015,04,16,13,42,15.30
2015,04,16,13,43,15.30
2015,04,16,13,44,15.30
2015,04,16,13,45,15.30
2015,04,16,13,46,15.20
2015,04,16,13,47,15.10
2015,04,16,13,48,15.10
2015,04,16,13,49,15.10
2015,04,16,13,50,15.00
2015,04,16,13,51,14.90
2015,04,16,13,52,14.90
2015,04,16,13,53,14.90
2015,04,16,13,54,15.00
2015,04,16,13,55,15.00
2015,04,16,13,56,15.10
2015,04,16,13,57,15.20
2015,04,16,13,58,15.20
2015,04,16,13,59,15.30
2015,04,16,14,00,15.30
2015,04,16,14,01,15.30
2015,04,16,14,02,15.30
2015,04,16,14,03,15.30
2015,04,16,14,04,15.30
2015,04,16,14,05,15.20
2015,04,16,14,06,15.20
2015,04,16,14,07,15.20
2015,04,16,14,08,15.20
2015,04,16,14,09,15.10
2015,04,16,14,10,15.10
2015,04,16,14,11,15.10
2015,04,16,14,12,15.00
2015,04,16,14,13,15.00
2015,04,16,14,14,14.90
2015,04,16,14,15,14.90
2015,04,16,14,16,15.00
2015,04,16,14,17,15.00
2015,04,16,14,18,15.10
2015,04,16,14,19,15.20
2015,04,16,14,20,15.20
2015,04,16,14,21,15.30
2015,04,16,14,22,15.30
2015,04,16,14,23,15.30
2015,04,16,14,24,15.30
2015,04,16,14,25,15.30
2015,04,16,14,26,15.20
2015,04,16,14,27,15.20
2015,04,16,14,28,15.20
2015,04,16,14,29,15.20
2015,04,16,14,30,15.10
2015,04,16,14,31,15.10
2015,04,16,14,32,15.20
2015,04,16,14,33,15.30
2015,04,16,14,34,15.40
2015,04,16,14,35,15.50
2015,04,16,14,36,15.60
2015,04,16,14,37,15.70
2015,04,16,14,38,15.80
2015,04,16,14,39,15.90
2015,04,16,14,40,15.90
2015,04,16,14,41,15.80
2015,04,16,14,42,15.80
2015,04,16,14,43,15.80
2015,04,16,14,44,15.80
2015,04,16,14,45,15.80
2015,04,16,14,46,15.80
2015,04,16,14,47,15.90
2015,04,16,14,48,15.90
2015,04,16,14,49,16.00
2015,04,16,14,50,16.00
2015,04,16,14,51,15.80
2015,04,16,14,52,15.80
2015,04,16,14,53,15.70
2015,04,16,14,54,15.60
2015,04,16,14,55,15.60
2015,04,16,14,56,15.70
2015,04,16,14,57,15.70
2015,04,16,14,58,15.80
2015,04,16,14,59,15.80
2015,04,16,15,00,15.90
2015,04,16,15,01,16.10
2015,04,16,15,02,16.10
2015,04,16,15,03,16.10
2015,04,16,15,04,16.10
2015,04,16,15,05,16.10
2015,04,16,15,06,16.00
2015,04,16,15,07,15.90
2015,04,16,15,08,15.80
2015,04,16,15,09,15.80
2015,04,16,15,10,15.80
2015,04,16,15,11,15.80
2015,04,16,15,12,15.70
2015,04,16,15,13,15.70
2015,04,16,15,14,15.70
2015,04,16,15,15,15.70
2015,04,16,15,16,15.70
2015,04,16,15,17,15.80
2015,04,16,15,18,15.70
2015,04,16,15,19,15.70
2015,04,16,15,20,15.60
2015,04,16,15,21,15.50
2015,04,16,15,22,15.50
2015,04,16,15,23,15.40
2015,04,16,15,24,15.40
2015,04,16,15,25,15.40
2015,04,16,15,26,15.40
2015,04,16,15,27,15.50
2015,04,16,15,28,15.50
2015,04,16,15,29,15.40
2015,04,16,15,30,15.40
2015,04,16,15,31,15.50
2015,04,16,15,32,15.50
2015,04,16,15,33,15.60
2015,04,16,15,34,15.60
2015,04,16,15,35,15.60
2015,04,16,15,36,15.70
2015,04,16,15,37,15.60
2015,04,16,15,38,15.60
2015,04,16,15,39,15.50
2015,04,16,15,40,15.50
2015,04,16,15,41,15.50
2015,04,16,15,42,15.40
2015,04,16,15,43,15.40
2015,04,16,15,44,15.40
2015,04,16,15,45,15.40
2015,04,16,15,46,15.30
2015,04,16,15,47,15.40
2015,04,16,15,48,15.50
2015,04,16,15,49,15.50
2015,04,16,15,50,15.50
2015,04,16,15,51,15.50
2015,04,16,15,52,15.40
2015,04,16,15,53,15.40
2015,04,16,15,54,15.40
2015,04,16,15,55,15.40
2015,04,16,15,56,15.40
2015,04,16,15,57,15.40
2015,04,16,15,58,15.50
2015,04,16,15,59,15.50
2015,04,16,16,00,15.50
2015,04,16,16,01,15.50
2015,04,16,16,02,15.50
2015,04,16,16,03,15.60
2015,04,16,16,04,15.60
2015,04,16,16,05,15.60
2015,04,16,16,06,15.70
2015,04,16,16,07,15.80
2015,04,16,16,08,15.80
2015,04,16,16,09,15.90
2015,04,16,16,10,16.00
2015,04,16,16,11,16.10
2015,04,16,16,12,16.10
2015,04,16,16,13,16.20
2015,04,16,16,14,16.20
2015,04,16,16,15,16.20
2015,04,16,16,16,16.20
2015,04,16,16,17,16.20
2015,04,16,16,18,16.20
2015,04,16,16,19,16.30
2015,04,16,16,20,16.40
2015,04,16,16,21,16.50
2015,04,16,16,22,16.70
2015,04,16,16,23,16.80
2015,04,16,16,24,16.90
2015,04,16,16,25,17.00
2015,04,16,16,26,17.00
2015,04,16,16,27,17.10
2015,04,16,16,28,17.10
2015,04,16,16,29,17.20
2015,04,16,16,30,17.20
2015,04,16,16,31,17.20
2015,04,16,16,32,17.10
2015,04,16,16,33,17.00
2015,04,16,16,34,17.00
2015,04,16,16,35,16.90
2015,04,16,16,36,16.80
2015,04,16,16,37,16.70
2015,04,16,16,38,16.60
2015,04,16,16,39,16.60
2015,04,16,16,40,16.60
2015,04,16,16,41,16.60
2015,04,16,16,42,16.60
2015,04,16,16,43,16.60
2015,04,16,16,44,16.60
2015,04,16,16,45,16.70
2015,04,16,16,46,16.70
2015,04,16,16,47,16.60
2015,04,16,16,48,16.60
2015,04,16,16,49,16.50
2015,04,16,16,50,16.40
2015,04,16,16,51,16.40
2015,04,16,16,52,16.30
2015,04,16,16,53,16.30
2015,04,16,16,54,16.30
2015,04,16,16,55,16.20
2015,04,16,16,56,16.20
2015,04,16,16,57,16.10
2015,04,16,16,58,16.10
2015,04,16,16,59,16.10
2015,04,16,17,00,16.10
2015,04,16,17,01,16.10
2015,04,16,17,02,16.10
2015,04,16,17,03,16.10
2015,04,16,17,04,16.10
2015,04,16,17,05,16.10
2015,04,16,17,06,16.20
2015,04,16,17,07,16.20
2015,04,16,17,08,16.20
2015,04,16,17,09,16.20
2015,04,16,17,10,16.20
2015,04,16,17,11,16.20
2015,04,16,17,12,16.30
2015,04,16,17,13,16.20
2015,04,16,17,14,16.20
2015,04,16,17,15,16.30
2015,04,16,17,16,16.20
2015,04,16,17,17,16.20
2015,04,16,17,18,16.10
2015,04,16,17,19,16.10
2015,04,16,17,20,16.10
2015,04,16,17,21,16.10
2015,04,16,17,22,16.10
2015,04,16,17,23,16.10
2015,04,16,17,24,16.00
2015,04,16,17,25,15.90
2015,04,16,17,26,15.90
2015,04,16,17,27,15.90
2015,04,16,17,28,15.90
2015,04,16,17,29,16.00
2015,04,16,17,30,16.10
2015,04,16,17,31,16.20
2015,04,16,17,32,16.30
2015,04,16,17,33,16.40
2015,04,16,17,34,16.40
2015,04,16,17,35,16.40
2015,04,16,17,36,16.30
2015,04,16,17,37,16.30
2015,04,16,17,38,16.20
2015,04,16,17,39,16.10
2015,04,16,17,40,16.00
2015,04,16,17,41,15.90
2015,04,16,17,42,15.80
2015,04,16,17,43,15.80